Zurück zum Katalog

OBJECT C

AktivVLEO
NORAD 100082·UNKNOWN·🇮🇳 India

Gestartet Jul 18, 2026 von Satish Dhawan Space Centre

Loading…

Nächste Überflüge (nächste 24 Stunden)

TLE

AktuellSource: Space-Track

Epoche: Sep 14, 2026, 12:12 UTC

1 A0082U 26164C   26257.50898836  .00021763  00000-0  50529-3 0  9991
2 A0082  59.9316  75.6185 0016556  12.6842 347.4659 15.42266303  8966

Verfolge OBJECT C in Echtzeit mit AllMySat

Download on the App Store